Вернуться в каталог

SL-8 R/B

АктивенLEO
NORAD 33066·ROCKET BODY·🇷🇺 Russia

Запущен Jun 19, 2008 с Kapustin Yar

Loading…

Ближайшие Пролёты (ближайшие 24 часа)

TLE

СвежийSource: Space-Track

Эпоха: Sep 14, 2026, 00:48 UTC

1 33066U 08031G   26257.03369321  .00000123  00000-0  49721-4 0  9992
2 33066  48.4414 134.5055 0007062   6.2828 353.8172 14.73295244979510

Отслеживайте SL-8 R/B в реальном времени с AllMySat

Download on the App Store